[[{"header":{"parameterUnit":"m.s-1","parameterCategory":1,"la1":30.2991,"la2":30.254,"lo1":-89.0895,"lo2":-89.0444,"dy":0.0017,"dx":0.0017,"nx":28,"ny":28,"refTime":"2025-01-17T09:00:00:Z","depth":0,"parameterNumber":2,"parameterNumberName":"U-component_of_WINDS"},"data":[0,0,0,0,0,0,0,0,0,0,0,0,0,0,0,0,0,0,0,0,0,0,0,0,0,0,0,0,0,0,0,0,0,0,0,0,0,0,0,0,0,0,0,0,0,0,0,0,0,0,0,0,0,0,0,0,0,0,-2.4667,-2.4668,0,-2.4739,-2.4739,-2.474,-2.4744,-2.4743,-2.4742,-2.4741,-2.4815,-2.4818,-2.4821,0,0,0,0,0,0,0,0,0,0,0,0,0,-2.4535,-2.4537,-2.4667,-2.4668,-2.4669,-2.4738,-2.4739,-2.474,-2.4744,-2.4743,-2.4742,-2.4741,-2.4814,-2.4818,-2.4821,0,0,0,0,0,0,0,0,0,0,0,0,0,-2.4598,-2.4538,-2.4667,-2.4679,-2.4681,-2.4738,-2.4739,-2.4741,-2.4744,-2.4743,-2.4742,-2.4741,-2.4813,-2.4817,-2.4821,-2.4872,0,0,-2.4834,-2.4836,0,0,0,0,0,0,0,0,-2.4594,-2.4603,-2.4677,-2.4679,-2.4681,-2.4731,-2.472,-2.4785,-2.4745,-2.472,-2.4741,-2.474,-2.4788,-2.4794,-2.4811,-2.4875,-2.4878,-2.4834,-2.4837,-2.4839,-2.484,0,0,0,0,0,0,0,-2.459,-2.46,-2.4696,-2.4678,-2.468,-2.4681,-2.4689,-2.4732,-2.476,-2.4722,-2.4723,-2.4731,-2.4789,-2.4807,-2.4812,-2.4879,-2.4834,-2.4838,-2.484,-2.4842,-2.4987,-2.4989,0,0,0,0,0,0,-2.4583,-2.4596,-2.4693,-2.4698,-2.4633,-2.4685,-2.4693,-2.4716,-2.476,-2.4765,-2.4732,-2.4731,-2.48,-2.4808,-2.4815,-2.4875,-2.4839,-2.4842,-2.4845,-2.4986,-2.4988,-2.4989,0,0,0,0,0,0,-2.458,-2.4592,-2.469,-2.4647,-2.466,-2.4688,-2.4714,-2.4718,-2.4735,-2.4767,-2.4772,-2.4744,-2.48,-2.4809,-2.4857,-2.4878,-2.4844,-2.4848,-2.4984,-2.4986,-2.4988,-2.4997,0,0,0,0,0,0,-2.4576,-2.4591,-2.461,-2.4647,-2.4662,-2.4731,-2.4715,-2.472,-2.4742,-2.4742,-2.478,-2.4786,-2.4799,-2.4851,-2.4861,-2.4883,-2.4851,-2.4982,-2.4985,-2.4988,-2.4995,-2.5,-2.5003,0,0,0,0,0,-2.4572,-2.461,-2.4611,-2.4623,-2.4687,-2.4733,-2.4741,-2.4755,-2.4744,-2.4764,-2.4784,-2.4784,-2.4874,-2.4856,-2.4867,-2.4891,-2.4981,-2.4984,-2.4987,-2.4994,-2.4999,-2.5003,0,0,0,0,0,0,-2.4576,-2.4616,-2.4617,-2.4669,-2.4697,-2.4733,-2.4758,-2.4761,-2.4793,-2.4791,-2.4808,-2.4817,-2.4864,-2.4883,-2.4861,-2.4941,-2.4926,-2.4932,-2.4927,-2.4932,-2.4936,-2.493,-2.4855,0,0,0,0,0,-2.4582,-2.4616,-2.4649,-2.4692,-2.4706,-2.473,-2.475,-2.4759,-2.4789,-2.4801,-2.4825,-2.4855,-2.489,-2.4912,-2.4946,-2.4998,-2.5006,-2.502,-2.5024,-2.5027,-2.5031,-2.5059,-2.5065,-2.4999,-2.4999,-2.4999,0,0,-2.4597,-2.4623,-2.4643,-2.4693,-2.4716,-2.475,-2.474,-2.4777,-2.4802,-2.4807,-2.4853,-2.4872,-2.4906,-2.4956,-2.4979,-2.4973,-2.5052,-2.5031,-2.5033,-2.5036,-2.5063,-2.5069,-2.5075,-2.5001,-2.5001,-2.5001,0,0,-2.4641,-2.4664,-2.4701,-2.4724,-2.4759,-2.4774,-2.4783,-2.4819,-2.4831,-2.4878,-2.4882,-2.4912,-2.4972,-2.4996,-2.5016,-2.5067,-2.5069,-2.5078,-2.5098,-2.5125,-2.513,-2.5135,-2.5152,-2.5158,-2.5083,-2.5083,-2.5083,0,-2.4654,-2.4706,-2.472,-2.4757,-2.4778,-2.4784,-2.4821,-2.4843,-2.4887,-2.4902,-2.4894,-2.4968,-2.4992,-2.5047,-2.5059,-2.5076,-2.5086,-2.5073,-2.5128,-2.5133,-2.5138,-2.5154,-2.5161,-2.5083,-2.5083,-2.5083,-2.5083,0,-2.472,-2.4756,-2.4782,-2.4824,-2.4848,-2.4885,-2.4905,-2.4928,-2.4935,-2.4951,-2.4998,-2.5026,-2.5065,-2.5079,-2.5086,-2.5134,-2.5129,-2.5125,-2.511,-2.5145,-2.516,-2.5167,-2.5085,-2.5084,-2.5084,-2.5084,0,0,-2.4769,-2.4817,-2.4826,-2.4844,-2.4883,-2.4911,-2.4948,-2.4985,-2.5004,-2.5034,-2.5065,-2.5115,-2.5111,-2.5134,-2.5143,-2.5167,-2.5204,-2.516,-2.5161,-2.5166,-2.5258,-2.5261,-2.5268,-2.5206,-2.5207,-2.5208,-2.5255,0,-2.4816,-2.4881,-2.4895,-2.4951,-2.4983,-2.4989,-2.5021,-2.5047,-2.5063,-2.5093,-2.5111,-2.5146,-2.5138,-2.5151,-2.5175,-2.5195,-2.5223,-2.5192,-2.5234,-2.5236,-2.5224,-2.5276,-2.5279,-2.5322,-2.5261,-2.5263,-2.5263,0,-2.488,-2.491,-2.4969,-2.5002,-2.5016,-2.5045,-2.5079,-2.5108,-2.5138,-2.5148,-2.5173,-2.518,-2.5218,-2.5202,-2.5255,-2.5233,-2.5251,-2.5264,-2.5266,-2.5269,-2.5251,-2.528,-2.5336,-2.5342,-2.5274,-2.5273,-2.5272,0,-2.4907,-2.4963,-2.5006,-2.5021,-2.5061,-2.508,-2.5098,-2.5127,-2.5148,-2.5179,-2.5193,-2.5228,-2.5247,-2.5274,-2.529,-2.5277,-2.5341,-2.5326,-2.5349,-2.5349,-2.5362,-2.5361,-2.5421,-2.5376,-2.5375,-2.5375,-2.5375,0,-2.4958,-2.4994,-2.5018,-2.5044,-2.5084,-2.51,-2.5139,-2.5156,-2.5182,-2.5211,-2.5218,-2.5246,-2.5266,-2.5296,-2.5309,-2.5349,-2.5358,-2.5367,-2.537,-2.5366,-2.5365,-2.5377,-2.5375,-2.5377,-2.5377,-2.5376,-2.5376,0,-2.4995,-2.5014,-2.506,-2.5093,-2.5102,-2.513,-2.5158,-2.5183,-2.5199,-2.5236,-2.5246,-2.527,-2.5306,-2.5325,-2.537,-2.5378,-2.5424,-2.5426,-2.5413,-2.5414,-2.5436,-2.5433,-2.5505,-2.5515,-2.5464,-2.5465,-2.5465,0,-2.5026,-2.5053,-2.5089,-2.5109,-2.5126,-2.5158,-2.5179,-2.5195,-2.5217,-2.5253,-2.5274,-2.531,-2.5339,-2.5396,-2.5418,-2.5452,-2.5454,-2.5477,-2.546,-2.5454,-2.5453,-2.5451,-2.5453,-2.548,-2.5481,-2.5481,-2.5481,0,-2.5078,-2.5085,-2.5115,-2.5149,-2.5174,-2.5201,-2.5227,-2.5243,-2.5264,-2.5288,-2.5324,-2.5347,-2.5392,-2.5427,-2.5463,-2.5481,-2.5484,-2.5487,-2.5494,-2.5489,-2.5481,-2.5484,-2.5421,-2.5485,-2.5484,-2.5484,-2.5484,-2.5484,-2.5112,-2.5136,-2.5165,-2.5198,-2.5219,-2.5244,-2.5269,-2.5287,-2.5317,-2.5355,-2.5362,-2.54,-2.5429,-2.5477,-2.5496,-2.5526,-2.5521,-2.5532,-2.5534,-2.5536,-2.5536,-2.5476,-2.5533,-2.5533,-2.5532,-2.5532,-2.5532,0,-2.5164,-2.5182,-2.5212,-2.5249,-2.5275,-2.5275,-2.5304,-2.5326,-2.5359,-2.5385,-2.5414,-2.5454,-2.5488,-2.5513,-2.5547,-2.5566,-2.5569,-2.5575,-2.5573,-2.5577,-2.5539,-2.5529,-2.5572,-2.5572,-2.5572,-2.5572,-2.5572,-2.5572,-2.5194,-2.5234,-2.5244,-2.5295,-2.5313,-2.5349,-2.5366,-2.5388,-2.5409,-2.5454,-2.5482,-2.5497,-2.5523,-2.5559,-2.559,-2.5596,-2.5608,-2.5614,-2.562,-2.5584,-2.558,-2.5576,-2.5566,-2.5617,-2.5617,-2.5656,-2.5656,-2.5656]},{"header":{"parameterUnit":"m.s-1","parameterCategory":1,"la1":30.2991,"la2":30.254,"lo1":-89.0895,"lo2":-89.0444,"dy":0.0017,"dx":0.0017,"nx":28,"ny":28,"refTime":"2025-01-17T09:00:00:Z","depth":0,"parameterNumber":3,"parameterNumberName":"V-component_of_WINDS"},"data":[0,0,0,0,0,0,0,0,0,0,0,0,0,0,0,0,0,0,0,0,0,0,0,0,0,0,0,0,0,0,0,0,0,0,0,0,0,0,0,0,0,0,0,0,0,0,0,0,0,0,0,0,0,0,0,0,0,0,3.7572,3.7574,0,3.7732,3.7733,3.7735,3.7755,3.7754,3.7752,3.7751,3.7918,3.7924,3.793,0,0,0,0,0,0,0,0,0,0,0,0,0,3.729,3.7295,3.7572,3.7574,3.7576,3.7731,3.7734,3.7736,3.7756,3.7754,3.7752,3.775,3.7916,3.7923,3.7931,0,0,0,0,0,0,0,0,0,0,0,0,0,3.7427,3.7296,3.7572,3.7604,3.7609,3.7731,3.7734,3.7736,3.7756,3.7754,3.7751,3.7749,3.7914,3.7923,3.7931,3.8033,0,0,3.7959,3.7962,0,0,0,0,0,0,0,0,3.7419,3.7438,3.7598,3.7602,3.7608,3.7721,3.7696,3.7836,3.7757,3.77,3.7751,3.7748,3.7855,3.7868,3.7904,3.8041,3.8048,3.7959,3.7965,3.7969,3.7971,0,0,0,0,0,0,0,3.741,3.7431,3.7635,3.76,3.7606,3.7613,3.763,3.7722,3.7789,3.7705,3.7707,3.7725,3.7857,3.7895,3.7908,3.8051,3.7959,3.7967,3.7973,3.7976,3.8283,3.8286,0,0,0,0,0,0,3.7394,3.7423,3.763,3.764,3.7506,3.762,3.7639,3.7687,3.7788,3.7801,3.7727,3.7726,3.7881,3.7897,3.7914,3.8042,3.7969,3.7977,3.7982,3.828,3.8284,3.8287,0,0,0,0,0,0,3.7387,3.7412,3.7624,3.7532,3.7559,3.7627,3.7681,3.7691,3.7729,3.7804,3.7817,3.7753,3.788,3.7901,3.8004,3.8048,3.7981,3.7989,3.8277,3.8281,3.8285,3.8298,0,0,0,0,0,0,3.7379,3.7409,3.7447,3.7533,3.7564,3.771,3.7684,3.7696,3.7744,3.7744,3.7832,3.7845,3.788,3.799,3.8013,3.8059,3.7996,3.8273,3.8279,3.8284,3.8294,3.8302,3.8309,0,0,0,0,0,3.7369,3.7445,3.7449,3.7474,3.7613,3.7712,3.773,3.7768,3.7747,3.7788,3.7836,3.7842,3.8039,3.8001,3.8026,3.8076,3.8271,3.8277,3.8283,3.8291,3.8301,3.8309,0,0,0,0,0,0,3.7364,3.7457,3.7462,3.7568,3.7632,3.7715,3.7766,3.7776,3.7849,3.7845,3.789,3.791,3.8011,3.8053,3.8009,3.8181,3.8153,3.8165,3.815,3.816,3.8168,3.8157,3.8003,0,0,0,0,0,3.7375,3.7446,3.7524,3.7609,3.7641,3.7698,3.7743,3.7766,3.7835,3.7862,3.7918,3.7986,3.8064,3.8114,3.8189,3.8299,3.8321,3.8346,3.8354,3.836,3.837,3.8435,3.8449,3.8308,3.8308,3.8308,0,0,3.7399,3.7458,3.7501,3.761,3.7662,3.7737,3.7721,3.78,3.7857,3.7875,3.7976,3.8019,3.8098,3.8206,3.8256,3.8244,3.8414,3.8368,3.8372,3.838,3.8443,3.8457,3.8468,3.8312,3.8311,3.8311,0,0,3.7482,3.7532,3.761,3.7663,3.7742,3.778,3.7799,3.7881,3.7911,3.8012,3.8028,3.8097,3.8228,3.8285,3.8331,3.8436,3.8446,3.8459,3.85,3.8563,3.8574,3.8584,3.8625,3.8639,3.8469,3.8469,3.8469,0,3.7502,3.7614,3.765,3.7729,3.7778,3.7796,3.7878,3.7927,3.8028,3.8062,3.8047,3.8214,3.8268,3.8391,3.8417,3.8452,3.8478,3.8451,3.8569,3.858,3.859,3.8629,3.8644,3.847,3.847,3.847,3.847,0,3.7637,3.7714,3.7768,3.7864,3.7919,3.7998,3.8049,3.81,3.8119,3.8159,3.8264,3.8329,3.8419,3.8449,3.8468,3.8576,3.8567,3.8559,3.8533,3.8604,3.8642,3.8657,3.8472,3.8472,3.8471,3.8471,0,0,3.7722,3.7836,3.7856,3.7901,3.799,3.8052,3.8134,3.8221,3.8266,3.8334,3.8406,3.8518,3.8512,3.8565,3.859,3.8645,3.8728,3.8632,3.8634,3.865,3.8855,3.8862,3.8879,3.8734,3.8737,3.8739,3.8849,0,3.7817,3.7962,3.7997,3.8122,3.8196,3.8215,3.8287,3.835,3.839,3.846,3.8504,3.8584,3.8569,3.8602,3.8656,3.8706,3.8771,3.8698,3.8804,3.8808,3.8787,3.8898,3.8905,3.9006,3.8864,3.8867,3.8868,0,3.7948,3.8019,3.8151,3.8232,3.8265,3.8328,3.8413,3.8478,3.8552,3.8577,3.8636,3.8657,3.8745,3.8712,3.8837,3.8787,3.8832,3.8864,3.8868,3.8882,3.8844,3.8918,3.9039,3.9055,3.8892,3.889,3.8888,0,3.8001,3.8129,3.8226,3.8263,3.836,3.8405,3.8447,3.8518,3.8569,3.8643,3.8678,3.8761,3.8807,3.8872,3.8916,3.8887,3.9038,3.9008,3.9065,3.9064,3.9098,3.9096,3.9231,3.9122,3.9121,3.9121,3.9121,0,3.8105,3.8186,3.8251,3.8311,3.8403,3.8443,3.8534,3.8578,3.8641,3.8711,3.8732,3.8798,3.885,3.8924,3.8958,3.9058,3.9078,3.9103,3.9112,3.9103,3.9101,3.9136,3.9131,3.9125,3.9124,3.9123,3.9123,0,3.8181,3.8227,3.8334,3.8417,3.844,3.8504,3.8576,3.8637,3.8676,3.8765,3.8789,3.8853,3.8941,3.899,3.91,3.9124,3.9236,3.924,3.9211,3.9216,3.9271,3.9267,3.9437,3.9463,3.9332,3.9333,3.9334,0,3.8246,3.8309,3.8398,3.8446,3.849,3.8566,3.8619,3.8661,3.8715,3.8805,3.8855,3.8944,3.9017,3.9158,3.9215,3.9301,3.9309,3.9363,3.9322,3.9312,3.9314,3.9311,3.932,3.9371,3.9372,3.9373,3.9373,0,3.8358,3.8378,3.8452,3.8534,3.8596,3.8663,3.873,3.8768,3.8822,3.8882,3.8972,3.9029,3.9142,3.9232,3.9322,3.9368,3.9382,3.9385,3.9404,3.9397,3.938,3.9394,3.9234,3.9382,3.9381,3.9381,3.938,3.938,3.8434,3.8491,3.8564,3.8646,3.87,3.8762,3.8824,3.8871,3.8946,3.9041,3.9062,3.9158,3.9232,3.9355,3.9404,3.9481,3.9471,3.9497,3.9504,3.951,3.9514,3.9364,3.9497,3.9497,3.9497,3.9496,3.9496,0,3.855,3.8597,3.8672,3.8765,3.883,3.8834,3.8908,3.8964,3.9047,3.9115,3.9187,3.9292,3.9379,3.9443,3.9533,3.9582,3.9591,3.9605,3.9603,3.9615,3.9516,3.9493,3.9597,3.9597,3.9597,3.9597,3.9597,3.9597,3.8618,3.8717,3.8746,3.8873,3.8921,3.9014,3.9057,3.9115,3.917,3.9285,3.9357,3.9398,3.9466,3.956,3.9642,3.9658,3.9692,3.9706,3.9724,3.9632,3.9621,3.9611,3.959,3.9712,3.9712,3.9817,3.9818,3.9819]}]]